Weather History for La Mesa, Honduras

Change the Weather History Date:

Sunday, April 21, 2013

  Actual Average Record
Temperature  
Mean Temperature 80 °F -  
Max Temperature 85 °F 91 °F 98 °F (1997)
Min Temperature 75 °F 73 °F 68 °F (2003)
Cooling Degree Days 15    
Growing Degree Days 30 (Base 50)    
Moisture  
Dew Point 76 °F    
Average Humidity 85    
Maximum Humidity 100    
Minimum Humidity 70    
Precipitation  
Precipitation 0.00 in 0.07 in - ()
Sea Level Pressure  
Sea Level Pressure 29.96 in    
Wind  
Wind Speed 2 mph ()    
Max Wind Speed 10 mph    
Max Gust Speed -    
Visibility 5.8 miles    
Events      
Averages and records for this station are not official NWS values.
T = Trace of Precipitation, MM = Missing Value Source: Averaged Metar Reports

Daily Weather History Graph

Daily Weather History Graph

Search for Another Location

Airport:

Trip Planner

Search our weather history database for the weather conditions in past years. The results will help you decide how hot, cold, wet, or windy it might be!

Date:

Astronomy

Apr. 21, 2013 Rise Set
Actual Time 5:33 AM CST 6:07 PM CST
Civil Twilight 5:11 AM CST 6:29 PM CST
Nautical Twilight 4:45 AM CST 6:55 PM CST
Astronomical Twilight 4:19 AM CST 7:21 PM CST
Moon 2:28 PM CST (4/21) 2:14 AM CST (4/21)
Length of Visible Light 13h 18m
Length of Day
12h 34m
Waxing Gibbous, 80% of the Moon is Illuminated
Apr 21
Waxing Gibbous
Apr 25
Full
May 2
Last Quarter
May 9
New
May 17
First Quarter

Hourly Weather History & Observations

Time (CST) Temp. Heat Index Dew Point Humidity Pressure Visibility Wind Dir Wind Speed Gust Speed Precip Events Conditions
12:00 AM 78.8 °F - 75.2 °F 89% 29.98 in 5.0 mi Calm Calm - N/A   Mostly Cloudy
1:00 AM 78.8 °F - 75.2 °F 89% 29.98 in 5.0 mi Calm Calm - N/A   Mostly Cloudy
2:00 AM 77.0 °F - 77.0 °F 100% 29.98 in 5.0 mi Calm Calm - N/A   Mostly Cloudy
3:00 AM 78 °F - 74 °F 85% 29.95 in 5 mi Calm Calm - -   Smoke
3:00 AM 78.8 °F - 75.2 °F 89% 29.95 in 5.0 mi Calm Calm - N/A   Mostly Cloudy
4:00 AM 78.8 °F - 75.2 °F 89% 29.95 in 5.0 mi Calm Calm - N/A   Mostly Cloudy
5:00 AM 77.0 °F - 75.2 °F 94% 29.95 in 5.0 mi Calm Calm - N/A   Mostly Cloudy
6:00 AM 76 °F - - %  in 5 mi NNW 3.5 mph - -  
6:00 AM 75.2 °F - 75.2 °F 100% 29.98 in 5.0 mi NNW 3.5 mph - N/A   Mostly Cloudy
7:00 AM 77.0 °F - 75.2 °F 94% 30.01 in 6.2 mi Calm Calm - N/A   Mostly Cloudy
8:00 AM 78.8 °F - 75.2 °F 89% 30.01 in 6.2 mi SSW 2.3 mph - N/A   Mostly Cloudy
9:00 AM 83 °F - 76 °F 75% 30.03 in 6 mi NE 4.6 mph - -   Haze
9:00 AM 84.2 °F 94.1 °F 77.0 °F 79% 30.04 in 6.2 mi NE 4.6 mph - N/A   Mostly Cloudy
10:00 AM 82.4 °F 89.5 °F 75.2 °F 79% 30.01 in 6.2 mi WSW 2.3 mph - N/A   Mostly Cloudy
11:00 AM 84.2 °F 92.3 °F 75.2 °F 74% 30.01 in 6.2 mi Calm Calm - N/A   Mostly Cloudy
12:00 PM 84 °F - 76 °F 70% 29.99 in 6 mi SSW 2.3 mph - -   Haze
12:00 PM 84.2 °F 92.3 °F 75.2 °F 74% 29.98 in 6.2 mi SSW 2.3 mph - N/A   Mostly Cloudy
1:00 PM 84.2 °F 92.3 °F 75.2 °F 74% 29.95 in 6.2 mi NE 2.3 mph - N/A   Mostly Cloudy
2:00 PM 86.0 °F 96.9 °F 77.0 °F 74% 29.92 in 6.2 mi NE 4.6 mph - N/A   Mostly Cloudy
3:00 PM 86.0 °F 96.9 °F 77.0 °F 74% 29.89 in 6.2 mi NE 6.9 mph - N/A   Scattered Clouds
4:00 PM 86.0 °F 99.3 °F 78.8 °F 79% 29.86 in 6.2 mi NNE 9.2 mph - N/A   Scattered Clouds
5:00 PM 86.0 °F 96.9 °F 77.0 °F 74% 29.86 in 6.2 mi NE 9.2 mph - N/A   Partly Cloudy
6:00 PM 83 °F - 76 °F 74% 29.89 in 6 mi NNE 9.2 mph - -   Haze
6:00 PM 82.4 °F 90.9 °F 77.0 °F 84% 29.89 in 6.2 mi NNE 9.2 mph - N/A   Scattered Clouds
7:00 PM 80.6 °F 87.1 °F 77.0 °F 89% 29.92 in 6.2 mi North 10.4 mph - N/A   Scattered Clouds
8:00 PM 78.8 °F - 77.0 °F 94% 29.95 in 6.2 mi North 9.2 mph - N/A   Mostly Cloudy
9:00 PM 78 °F - 77 °F 97% 29.98 in 6 mi North 5.8 mph - -   Haze
9:00 PM 78.8 °F - 77.0 °F 94% 29.98 in 6.2 mi North 5.8 mph - N/A   Scattered Clouds
10:00 PM 77.0 °F - 77.0 °F 100% 29.98 in 6.2 mi NNW 3.5 mph - N/A   Scattered Clouds
11:00 PM 77.0 °F - 77.0 °F 100% 29.98 in 6.2 mi Calm Calm - N/A   Scattered Clouds